Change the Weather History Date:

Tuesday, October 9, 2012

  Actual Average (KSAF) Record (KSAF)
Temperature  
Mean Temperature 55 °F -  
Max Temperature 72 °F 80 °F 82 °F (1980)
Min Temperature 39 °F 33 °F 32 °F (1978)
Degree Days  
Heating Degree Days 10    
Growing Degree Days 5 (Base 50)    
Moisture  
Dew Point 24 °F    
Average Humidity 33    
Maximum Humidity 50    
Minimum Humidity 16    
Precipitation  
Precipitation 0.00 in - - ()
Sea Level Pressure  
Sea Level Pressure 29.98 in    
Wind  
Wind Speed 13 mph (WNW)    
Max Wind Speed 26 mph    
Max Gust Speed 34 mph    
Visibility 10 miles    
Events      
Averages and records for this station are not official NWS values.
T = Trace of Precipitation, MM = Missing Value Source: NWS Daily Summary

Daily Weather History Graph

Daily Weather History Graph

Search for Another Location

Airport or City:

Trip Planner

Search our weather history database for the weather conditions in past years. The results will help you decide how hot, cold, wet, or windy it might be!

Date:

Astronomy

Oct. 09, 2012 Rise Set
Actual Time 7:04 AM MDT 6:34 PM MDT
Civil Twilight 6:38 AM MDT 7:00 PM MDT
Nautical Twilight 6:09 AM MDT 7:29 PM MDT
Astronomical Twilight 5:40 AM MDT 7:58 PM MDT
Moon 12:56 AM MDT (10/9) 2:51 PM MDT (10/9)
Length of Visible Light 12h 21m
Length of Day
11h 30m
Last Quarter, 36% of the Moon is Illuminated
Oct 9
Last Quarter
Oct 15
New
Oct 21
First Quarter
Oct 29
Full
Nov 6
Last Quarter

Hourly Weather History & Observations

Time (MDT) Temp. Windchill Dew Point Humidity Pressure Visibility Wind Dir Wind Speed Gust Speed Precip Events Conditions
12:53 AM 46.9 °F - 21.0 °F 36% 29.95 in 10.0 mi West 12.7 mph - N/A   Clear
1:53 AM 46.0 °F 40.2 °F 21.9 °F 39% 29.96 in 10.0 mi West 12.7 mph - N/A   Clear
2:53 AM 46.0 °F 40.6 °F 21.0 °F 37% 30.12 in 10.0 mi West 11.5 mph - N/A   Clear
3:53 AM 44.1 °F 38.1 °F 21.0 °F 40% 29.91 in 10.0 mi West 11.5 mph - N/A   Clear
4:53 AM 42.1 °F 35.7 °F 21.0 °F 43% 29.92 in 10.0 mi West 11.5 mph - N/A   Clear
5:53 AM 39.9 °F 32.9 °F 21.0 °F 47% 29.94 in 10.0 mi WNW 11.5 mph - N/A   Clear
6:53 AM 42.1 °F 35.7 °F 21.0 °F 43% 29.97 in 10.0 mi WNW 11.5 mph - N/A   Clear
7:53 AM 46.0 °F 41.4 °F 21.9 °F 39% 29.99 in 10.0 mi West 9.2 mph - N/A   Clear
8:53 AM 55.0 °F - 24.1 °F 30% 29.99 in 10.0 mi WNW 9.2 mph - N/A   Clear
10:53 AM 64.0 °F - 30.0 °F 28% 29.97 in 10.0 mi WNW 16.1 mph 25.3 mph N/A   Unknown
11:53 AM 68.0 °F - 28.9 °F 23% 29.94 in 10.0 mi WNW 16.1 mph 25.3 mph N/A   Clear
12:53 PM 70.0 °F - 27.0 °F 20% 29.93 in 10.0 mi WNW 26.5 mph 34.5 mph N/A   Clear
2:53 PM 71.1 °F - 21.9 °F 16% 29.91 in 10.0 mi NW 21.9 mph 32.2 mph N/A   Clear
3:53 PM 71.1 °F - 25.0 °F 18% 29.91 in 10.0 mi West 17.3 mph 26.5 mph N/A   Clear
4:53 PM 70.0 °F - 26.1 °F 19% 29.91 in 10.0 mi West 17.3 mph 25.3 mph N/A   Clear
5:53 PM 68.0 °F - 26.1 °F 21% 29.94 in 10.0 mi West 12.7 mph - N/A   Clear
6:53 PM 57.9 °F - 27.0 °F 31% 30.00 in 10.0 mi West 11.5 mph - N/A   Clear
7:53 PM 57.0 °F - 27.0 °F 32% 30.03 in 10.0 mi WNW 5.8 mph - N/A   Clear
8:53 PM 53.1 °F - 25.0 °F 34% 30.04 in 10.0 mi West 5.8 mph - N/A   Clear
9:53 PM 57.0 °F - 21.9 °F 26% 30.00 in 10.0 mi North 5.8 mph - N/A   Clear
10:53 PM 51.1 °F - 24.1 °F 35% 30.02 in 10.0 mi SW 5.8 mph - N/A   Clear
11:36 PM 48.2 °F - 28.4 °F 46% 30.25 in 10.0 mi East 12.7 mph - N/A   Clear
11:53 PM 46.9 °F - 28.9 °F 50% 30.05 in 10.0 mi East 13.8 mph - N/A   Clear